FW9870 Weather Reports


Display with metric or nautical units.
time (UTC)temp
F
wind
direction
speed
MPH
gust
MPH
rain 1hr
in
rain 24hr
in
rain mn
in
humidity
%
barometer
mb
20260504234544 72 234 1.0 4.0 0.00 0.00 0.00 38 1002.3
20260504234021 72 234 2.0 5.0 0.00 0.00 0.00 36 1002.3
20260504233521 72 234 2.0 5.0 0.00 0.00 0.00 35 1002.2
20260504233046 73 234 2.0 5.0 0.00 0.00 0.00 35 1002.2
20260504232521 73 245 2.0 5.0 0.00 0.00 0.00 35 1002.1
20260504232020 73 229 3.0 5.0 0.00 0.00 0.00 35 1002.1
20260504231558 73 227 2.0 5.0 0.00 0.00 0.00 36 1002.0
20260504231020 73 230 2.0 7.0 0.00 0.00 0.00 35 1002.0
20260504230524 73 234 3.0 10.0 0.00 0.00 0.00 34 1002.1
20260504230042 74 246 4.0 11.0 0.00 0.00 0.00 34 1002.0
20260504225521 74 238 6.0 15.0 0.00 0.00 0.00 32 1001.9
20260504225021 74 211 5.0 15.0 0.00 0.00 0.00 35 1001.9
20260504224543 74 219 3.0 9.0 0.00 0.00 0.00 35 1002.0
20260504224021 74 217 5.0 12.0 0.00 0.00 0.00 33 1002.1
20260504223520 74 244 6.0 12.0 0.00 0.00 0.00 32 1002.2
20260504223041 74 250 5.0 14.0 0.00 0.00 0.00 33 1002.2
20260504222521 74 238 5.0 14.0 0.00 0.00 0.00 34 1002.2
20260504222025 74 212 9.0 14.0 0.00 0.00 0.00 33 1002.3
20260504221612 74 236 6.0 15.0 0.00 0.00 0.00 32 1002.3
20260504221023 74 245 8.0 15.0 0.00 0.00 0.00 34 1002.3
20260504220523 74 210 8.0 14.0 0.00 0.00 0.00 32 1002.3
20260504220043 75 210 6.0 14.0 0.00 0.00 0.00 34 1002.4
20260504215522 74 263 9.0 14.0 0.00 0.00 0.00 33 1002.4
20260504215024 74 271 6.0 16.0 0.00 0.00 0.00 34 1002.4
20260504214538 74 241 9.0 16.0 0.00 0.00 0.00 33 1002.5
20260504214022 74 252 8.0 14.0 0.00 0.00 0.00 33 1002.5
20260504213523 75 254 7.0 14.0 0.00 0.00 0.00 32 1002.5
20260504213044 75 244 7.0 17.0 0.00 0.00 0.00 34 1002.6
20260504212523 74 242 5.0 19.0 0.00 0.00 0.00 35 1002.7
20260504212022 74 228 12.0 19.0 0.00 0.00 0.00 31 1002.7
20260504211541 75 213 8.0 16.0 0.00 0.00 0.00 36 1002.7
20260504211023 75 261 9.0 16.0 0.00 0.00 0.00 34 1002.8
20260504210523 74 284 8.0 16.0 0.00 0.00 0.00 34 1002.7
20260504210047 74 252 8.0 17.0 0.00 0.00 0.00 34 1002.7
20260504205524 74 197 7.0 18.0 0.00 0.00 0.00 37 1002.7
20260504205026 74 271 10.0 18.0 0.00 0.00 0.00 37 1002.7
20260504204542 73 238 10.0 18.0 0.00 0.00 0.00 37 1002.8
20260504204024 73 256 11.0 18.0 0.00 0.00 0.00 36 1002.8
20260504203523 73 226 8.0 18.0 0.00 0.00 0.00 39 1002.9
20260504203045 73 260 10.0 18.0 0.00 0.00 0.00 38 1003.0
20260504202523 74 229 7.0 19.0 0.00 0.00 0.00 37 1003.0
20260504202023 74 248 10.0 19.0 0.00 0.00 0.00 36 1003.1
20260504201544 74 274 10.0 17.0 0.00 0.00 0.00 37 1003.1
20260504201022 74 242 6.0 21.0 0.00 0.00 0.00 39 1003.1
20260504200524 73 241 11.0 21.0 0.00 0.00 0.00 37 1003.4
20260504200041 74 200 7.0 16.0 0.00 0.00 0.00 40 1003.4
20260504195523 73 194 9.0 16.0 0.00 0.00 0.00 37 1003.5
20260504195023 73 232 10.0 18.0 0.00 0.00 0.00 37 1003.5
20260504194549 74 240 11.0 19.0 0.00 0.00 0.00 37 1003.5
20260504194023 73 264 10.0 19.0 0.00 0.00 0.00 40 1003.6
20260504193523 73 264 8.0 17.0 0.00 0.00 0.00 38 1003.5
20260504193046 73 282 12.0 17.0 0.00 0.00 0.00 38 1003.7
20260504192523 73 271 8.0 17.0 0.00 0.00 0.00 41 1003.8
20260504192025 72 292 8.0 17.0 0.00 0.00 0.00 43 1003.7
20260504191608 72 261 8.0 17.0 0.00 0.00 0.00 40 1003.6
20260504191023 72 281 8.0 17.0 0.00 0.00 0.00 44 1003.7
20260504190523 72 243 9.0 18.0 0.00 0.00 0.00 43 1003.8
20260504190045 71 263 10.0 18.0 0.00 0.00 0.00 46 1003.9
20260504185522 71 229 12.0 20.0 0.00 0.00 0.00 43 1003.9
20260504185022 71 207 12.0 20.0 0.00 0.00 0.00 46 1003.9
20260504184554 71 227 9.0 19.0 0.00 0.00 0.00 43 1004.0
20260504184023 71 289 10.0 19.0 0.00 0.00 0.00 45 1004.0
20260504183522 71 300 10.0 18.0 0.00 0.00 0.00 43 1004.1
20260504183041 71 269 11.0 22.0 0.00 0.00 0.00 42 1004.3
20260504182527 71 309 11.0 25.0 0.00 0.00 0.00 43 1004.3
20260504182022 71 211 13.0 25.0 0.00 0.00 0.00 44 1004.2
20260504181542 71 236 11.0 22.0 0.00 0.00 0.00 43 1004.2
20260504181023 71 236 11.0 19.0 0.00 0.00 0.00 44 1004.4
20260504180524 71 272 10.0 19.0 0.00 0.00 0.00 46 1004.4
20260504180040 70 234 11.0 18.0 0.00 0.00 0.00 47 1004.4
20260504175523 70 258 8.0 18.0 0.00 0.00 0.00 46 1004.4
20260504175023 70 247 7.0 23.0 0.00 0.00 0.00 46 1004.5
20260504174544 69 257 12.0 23.0 0.00 0.00 0.00 45 1004.7
20260504174023 69 257 15.0 21.0 0.00 0.00 0.00 45 1004.6
20260504173523 69 239 11.0 22.0 0.00 0.00 0.00 47 1004.7
20260504173044 69 223 14.0 22.0 0.00 0.00 0.00 49 1004.7
20260504172522 69 202 9.0 20.0 0.00 0.00 0.00 47 1004.6
20260504172023 68 225 10.0 16.0 0.00 0.00 0.00 47 1004.8
20260504171546 69 240 10.0 16.0 0.00 0.00 0.00 49 1004.9
20260504171025 68 245 10.0 18.0 0.00 0.00 0.00 47 1005.0
20260504170522 68 225 9.0 18.0 0.00 0.00 0.00 49 1004.9
20260504151111 63 221 9.0 18.0 0.00 0.00 0.00 51 1005.5
20260504150526 63 242 8.0 17.0 0.00 0.00 0.00 54 1005.5
20260504141026 61 236 12.0 22.0 0.00 0.00 0.00 53 1005.7
20260504140523 61 220 10.0 19.0 0.00 0.00 0.00 52 1005.8
20260504130523 59 219 8.0 16.0 0.00 0.00 0.00 55 1006.4
20260504110520 54 218 9.0 19.0 0.00 0.00 0.00 55 1006.1
20260504100522 53 200 9.0 15.0 0.00 0.00 0.00 55 1006.0
20260504081544 52 212 8.0 14.0 0.00 0.00 0.00 57 1006.5
20260504081025 52 224 6.0 12.0 0.00 0.00 0.00 57 1006.5
20260504080522 53 223 8.0 15.0 0.00 0.00 0.00 56 1006.4
20260504050523 54 232 6.0 13.0 0.00 0.00 0.00 61 1007.6
20260504045523 52 239 5.0 12.0 0.00 0.00 0.00 65 1007.7
20260504045023 51 242 3.0 7.0 0.00 0.00 0.00 68 1007.6
20260504044539 50 229 2.0 5.0 0.00 0.00 0.00 72 1007.7
20260504044023 50 220 0.0 3.0 0.00 0.00 0.00 75 1007.7
20260504043531 49 0 0.0 0.0 0.00 0.00 0.00 77 1007.6
20260504043042 49 0 0.0 0.0 0.00 0.00 0.00 76 1007.7
20260504042523 49 0 0.0 0.0 0.00 0.00 0.00 78 1007.7
20260504042023 49 0 0.0 0.0 0.00 0.00 0.00 79 1007.7
20260504041541 48 0 0.0 0.0 0.00 0.00 0.00 79 1007.8
20260504041023 48 0 0.0 0.0 0.00 0.00 0.00 81 1007.8
20260504040523 48 0 0.0 0.0 0.00 0.00 0.00 82 1007.7
20260504040045 48 0 0.0 0.0 0.00 0.00 0.00 82 1007.8
20260504035528 48 0 0.0 0.0 0.00 0.00 0.00 83 1007.8
20260504035024 48 0 0.0 0.0 0.00 0.00 0.00 82 1007.7
20260504034553 48 0 0.0 0.0 0.00 0.00 0.00 82 1007.6
20260504034022 48 0 0.0 0.0 0.00 0.00 0.00 82 1007.8
20260504033522 48 0 0.0 0.0 0.00 0.00 0.00 82 1007.8
20260504033051 49 0 0.0 0.0 0.00 0.00 0.00 82 1007.8
20260504032524 49 0 0.0 0.0 0.00 0.00 0.00 82 1007.9
20260504032024 49 0 0.0 0.0 0.00 0.00 0.00 81 1008.0
20260504031556 49 0 0.0 0.0 0.00 0.00 0.00 80 1007.9
20260504031023 49 0 0.0 0.0 0.00 0.00 0.00 81 1008.1
20260504030523 49 0 0.0 0.0 0.00 0.00 0.00 79 1008.1
20260504030052 49 0 0.0 0.0 0.00 0.00 0.00 79 1008.1
20260504025524 49 0 0.0 0.0 0.00 0.00 0.00 79 1008.2
20260504025024 49 0 0.0 0.0 0.00 0.00 0.00 78 1008.2
20260504024542 49 0 0.0 0.0 0.00 0.00 0.00 78 1008.2
20260504024024 49 0 0.0 0.0 0.00 0.00 0.00 78 1008.3
20260504023524 49 0 0.0 0.0 0.00 0.00 0.00 77 1008.3
20260504023044 49 0 0.0 0.0 0.00 0.00 0.00 76 1008.4
20260504022525 50 0 0.0 0.0 0.00 0.00 0.00 77 1008.3
20260504022022 50 0 0.0 0.0 0.00 0.00 0.00 76 1008.6
20260504021543 50 0 0.0 0.0 0.00 0.00 0.00 76 1008.6
20260504021023 50 0 0.0 3.0 0.00 0.00 0.00 75 1008.5
20260504020525 50 0 0.0 4.0 0.00 0.00 0.00 75 1008.5
20260504020041 50 0 2.0 5.0 0.00 0.00 0.00 75 1008.5
20260504015523 50 196 3.0 5.0 0.00 0.00 0.00 76 1008.6
20260504015026 50 238 2.0 4.0 0.00 0.00 0.00 77 1008.6
20260504014539 50 0 0.0 0.0 0.00 0.00 0.00 77 1008.8
20260504014026 50 0 0.0 0.0 0.00 0.00 0.00 76 1008.8
20260504013524 50 0 0.0 0.0 0.00 0.00 0.00 76 1008.9
20260504013042 50 0 0.0 3.0 0.00 0.00 0.00 77 1009.0
20260504012629 50 0 0.0 6.0 0.00 0.00 0.00 77 1009.1
20260504012025 50 269 1.0 6.0 0.00 0.00 0.00 76 1009.0
20260504011545 50 270 3.0 9.0 0.00 0.00 0.00 76 1009.1
20260504011027 50 265 2.0 9.0 0.00 0.00 0.00 76 1008.9
20260504010523 50 257 3.0 9.0 0.00 0.00 0.00 76 1009.1
20260504010043 50 259 3.0 9.0 0.00 0.00 0.00 75 1009.1
20260504005523 51 285 5.0 9.0 0.00 0.00 0.00 74 1009.3
20260504005023 51 257 5.0 11.0 0.00 0.00 0.00 74 1009.5
20260504004541 51 243 5.0 13.0 0.00 0.00 0.00 72 1009.4
20260504004023 51 296 7.0 16.0 0.00 0.00 0.00 71 1009.4
20260504003523 52 241 7.0 16.0 0.00 0.00 0.00 70 1009.2
20260504003043 52 268 6.0 12.0 0.00 0.00 0.00 70 1009.2
20260504002527 52 288 6.0 14.0 0.00 0.00 0.00 69 1009.0
20260504002024 52 268 8.0 17.0 0.00 0.00 0.00 68 1008.9
20260504001538 52 257 8.0 25.0 0.00 0.00 0.00 68 1008.9
20260504001025 53 244 10.0 25.0 0.00 0.00 0.00 66 1008.9
20260504000522 53 288 12.0 25.0 0.00 0.00 0.00 64 1009.0
20260504000104 54 254 12.0 23.0 0.00 0.00 0.00 60 1008.9
20260503235524 55 254 9.0 23.0 0.00 0.00 0.00 56 1008.8
20260503235024 55 259 12.0 23.0 0.00 0.00 0.00 55 1008.6